�������l�o���
Date,Time,MP-1(��Sv/h),MP-2(��Sv/h),MP-3(��Sv/h),MP-4(��Sv/h),MP-5(��Sv/h),MP-6(��Sv/h),MP-7(��Sv/h),����,����(m/s),���J
2017/01/28,00:00,0.386,0.231,0.401,0.370,0.336,0.192,0.165,���k��,6.0,��
2017/01/28,00:10,0.387,0.232,0.399,0.370,0.335,0.192,0.165,���k��,4.9,��
2017/01/28,00:20,0.386,0.231,0.399,0.370,0.335,0.192,0.164,���k��,4.8,��
2017/01/28,00:30,0.385,0.231,0.399,0.371,0.335,0.193,0.164,���k��,4.5,��
2017/01/28,00:40,0.386,0.232,0.400,0.370,0.336,0.193,0.165,���k��,6.4,��
2017/01/28,00:50,0.386,0.231,0.400,0.371,0.336,0.193,0.165,���k��,5.9,��
2017/01/28,01:00,0.387,0.231,0.399,0.370,0.337,0.192,0.166,���k��,6.1,��
2017/01/28,01:10,0.387,0.231,0.399,0.371,0.337,0.193,0.165,�k��,5.4,��
2017/01/28,01:20,0.387,0.232,0.401,0.368,0.335,0.193,0.165,���k��,5.2,��
2017/01/28,01:30,0.387,0.230,0.399,0.370,0.335,0.191,0.164,���k��,5.3,��
2017/01/28,01:40,0.387,0.231,0.400,0.370,0.336,0.193,0.165,���k��,4.0,��
2017/01/28,01:50,0.387,0.231,0.399,0.369,0.336,0.192,0.165,���k��,3.6,��
2017/01/28,02:00,0.386,0.230,0.399,0.369,0.336,0.193,0.164,�k��,2.4,��
2017/01/28,02:10,0.384,0.230,0.398,0.370,0.336,0.191,0.164,�k�k��,1.7,��
2017/01/28,02:20,0.388,0.231,0.398,0.370,0.336,0.192,0.164,�k��,4.4,��
2017/01/28,02:30,0.385,0.231,0.398,0.371,0.337,0.192,0.165,�k��,5.3,��
2017/01/28,02:40,0.385,0.231,0.400,0.369,0.336,0.193,0.164,�k��,4.8,��
2017/01/28,02:50,0.387,0.230,0.398,0.370,0.337,0.191,0.164,�k�k��,4.9,��
2017/01/28,03:00,0.388,0.230,0.398,0.370,0.336,0.191,0.164,�k,2.8,��
2017/01/28,03:10,0.386,0.232,0.399,0.371,0.336,0.191,0.164,�k�k��,1.7,��
2017/01/28,03:20,0.386,0.234,0.398,0.372,0.337,0.192,0.164,��,0.6,��
2017/01/28,03:30,0.386,0.230,0.397,0.371,0.335,0.192,0.164,��,0.7,��
2017/01/28,03:40,0.386,0.231,0.396,0.371,0.335,0.191,0.165,-,CALM,��
2017/01/28,03:50,0.388,0.231,0.398,0.371,0.335,0.192,0.164,���쐼,2.5,��
2017/01/28,04:00,0.386,0.230,0.399,0.370,0.336,0.192,0.164,�k��,1.0,��
2017/01/28,04:10,0.385,0.231,0.398,0.370,0.336,0.192,0.163,�k,1.5,��
2017/01/28,04:20,0.387,0.230,0.397,0.371,0.333,0.192,0.163,�쐼,2.0,��
2017/01/28,04:30,0.387,0.230,0.397,0.370,0.335,0.190,0.164,��쓌,1.8,��
2017/01/28,04:40,0.386,0.231,0.398,0.369,0.336,0.191,0.165,��쐼,1.2,��
2017/01/28,04:50,0.385,0.231,0.397,0.369,0.335,0.193,0.163,��쐼,1.9,��
2017/01/28,05:00,0.385,0.231,0.399,0.369,0.335,0.192,0.164,��,0.8,��
2017/01/28,05:10,0.386,0.230,0.398,0.370,0.336,0.191,0.164,���k��,1.7,��
2017/01/28,05:20,0.386,0.230,0.400,0.369,0.335,0.192,0.164,���k��,2.7,��
2017/01/28,05:30,0.386,0.231,0.397,0.368,0.335,0.192,0.164,���k��,2.6,��
2017/01/28,05:40,0.386,0.229,0.396,0.370,0.336,0.192,0.164,�k��,3.7,��
2017/01/28,05:50,0.387,0.230,0.398,0.369,0.336,0.193,0.163,�k��,2.5,��
2017/01/28,06:00,0.387,0.231,0.399,0.371,0.334,0.192,0.164,�k��,3.6,��
2017/01/28,06:10,0.387,0.230,0.398,0.368,0.336,0.192,0.164,�k�k��,3.1,��
2017/01/28,06:20,0.386,0.230,0.398,0.370,0.335,0.191,0.164,�k��,2.5,��
2017/01/28,06:30,0.387,0.230,0.398,0.370,0.334,0.192,0.164,�k�k��,3.0,��
2017/01/28,06:40,0.385,0.229,0.398,0.369,0.336,0.191,0.164,�k�k��,3.8,��
2017/01/28,06:50,0.385,0.232,0.398,0.368,0.336,0.192,0.164,�k�k��,4.6,��
2017/01/28,07:00,0.387,0.230,0.397,0.370,0.334,0.191,0.164,�k�k��,4.7,��
2017/01/28,07:10,0.386,0.229,0.398,0.370,0.335,0.191,0.164,�k�k��,7.3,��
2017/01/28,07:20,0.386,0.230,0.399,0.370,0.335,0.191,0.163,�k��,6.7,��
2017/01/28,07:30,0.386,0.230,0.397,0.370,0.334,0.191,0.164,�k��,6.1,��
2017/01/28,07:40,0.387,0.229,0.399,0.370,0.334,0.191,0.164,�k�k��,6.3,��
2017/01/28,07:50,0.387,0.231,0.399,0.369,0.335,0.193,0.164,�k�k��,4.2,��
2017/01/28,08:00,0.386,0.230,0.399,0.367,0.336,0.191,0.165,�k�k��,4.7,��
2017/01/28,08:10,0.386,0.229,0.399,0.369,0.335,0.191,0.163,�k�k��,4.9,��
2017/01/28,08:20,0.387,0.230,0.397,0.371,0.335,0.192,0.163,�k��,6.7,��
2017/01/28,08:30,0.386,0.229,0.399,0.369,0.336,0.191,0.163,���k��,4.9,��
2017/01/28,08:40,0.384,0.230,0.399,0.370,0.334,0.190,0.164,��,6.5,��
2017/01/28,08:50,0.385,0.231,0.398,0.370,0.335,0.190,0.164,���k��,7.7,��
2017/01/28,09:00,0.387,0.230,0.399,0.368,0.335,0.190,0.164,�k��,8.5,��
2017/01/28,09:10,0.385,0.230,0.400,0.367,0.336,0.191,0.164,�k��,6.0,��
2017/01/28,09:20,0.386,0.231,0.400,0.370,0.336,0.191,0.164,�k��,6.1,��
2017/01/28,09:30,0.387,0.230,0.396,0.367,0.336,0.191,0.164,���k��,7.2,��
2017/01/28,09:40,0.386,0.230,0.398,0.370,0.337,0.192,0.162,���k��,6.2,��
2017/01/28,09:50,0.386,0.230,0.400,0.369,0.337,0.191,0.163,�k��,5.8,��
2017/01/28,10:00,0.385,0.230,0.397,0.368,0.337,0.192,0.163,��,6.6,��
2017/01/28,10:10,0.385,0.230,0.398,0.368,0.334,0.192,0.164,�k��,5.9,��
2017/01/28,10:20,0.385,0.229,0.401,0.366,0.337,0.192,0.164,�k��,6.8,��
2017/01/28,10:30,0.384,0.230,0.398,0.370,0.333,0.192,0.163,�k��,8.0,��
2017/01/28,10:40,0.386,0.231,0.399,0.366,0.337,0.192,0.165,�k��,8.4,��
2017/01/28,10:50,0.383,0.230,0.398,0.371,0.336,0.192,0.164,�k��,7.1,��
2017/01/28,11:00,0.384,0.229,0.400,0.368,0.334,0.193,0.163,���k��,7.5,��
2017/01/28,11:10,0.385,0.230,0.398,0.369,0.336,0.193,0.164,�k��,7.8,��
2017/01/28,11:20,0.385,0.230,0.399,0.368,0.335,0.192,0.165,���k��,8.5,��
2017/01/28,11:30,0.385,0.231,0.397,0.369,0.337,0.193,0.164,�k��,9.0,��
2017/01/28,11:40,0.385,0.231,0.396,0.369,0.335,0.193,0.163,�k�k��,8.9,��
2017/01/28,11:50,0.386,0.230,0.399,0.368,0.335,0.193,0.164,�k��,5.6,��
2017/01/28,12:00,0.387,0.229,0.396,0.371,0.337,0.192,0.164,�k��,6.4,��
2017/01/28,12:10,0.384,0.231,0.397,0.369,0.334,0.192,0.165,�k��,6.8,��
2017/01/28,12:20,0.386,0.230,0.398,0.371,0.335,0.192,0.164,���k��,8.1,��
2017/01/28,12:30,0.386,0.230,0.395,0.369,0.334,0.192,0.164,���k��,7.7,��
2017/01/28,12:40,0.385,0.231,0.397,0.370,0.336,0.192,0.164,��,7.5,��
2017/01/28,12:50,0.387,0.230,0.397,0.369,0.337,0.193,0.164,�k��,8.0,��
2017/01/28,13:00,0.386,0.230,0.398,0.370,0.335,0.191,0.163,�k��,9.2,��
2017/01/28,13:10,0.389,0.231,0.400,0.371,0.336,0.192,0.164,�k��,8.2,��
2017/01/28,13:20,0.385,0.231,0.397,0.370,0.336,0.192,0.164,���k��,10.0,��
2017/01/28,13:30,0.385,0.230,0.399,0.368,0.337,0.192,0.164,���k��,12.2,��
2017/01/28,13:40,0.386,0.231,0.398,0.371,0.335,0.192,0.163,�k��,12.1,��
2017/01/28,13:50,0.385,0.230,0.399,0.368,0.335,0.191,0.164,���k��,10.9,��
2017/01/28,14:00,0.386,0.232,0.397,0.369,0.339,0.192,0.164,���k��,7.2,��
2017/01/28,14:10,0.387,0.231,0.397,0.372,0.336,0.192,0.164,���k��,7.0,��
2017/01/28,14:20,0.386,0.230,0.400,0.370,0.335,0.191,0.163,���k��,7.0,��
2017/01/28,14:30,0.387,0.231,0.400,0.372,0.335,0.193,0.164,���k��,7.1,��
2017/01/28,14:40,0.387,0.231,0.400,0.371,0.337,0.192,0.165,�k��,7.2,��
2017/01/28,14:50,0.390,0.232,0.402,0.372,0.338,0.191,0.165,�k�k��,4.5,��
2017/01/28,15:00,0.388,0.230,0.400,0.373,0.339,0.191,0.164,�k�k��,5.0,��
2017/01/28,15:10,0.387,0.231,0.399,0.371,0.336,0.192,0.164,�k��,2.5,��
2017/01/28,15:20,0.389,0.232,0.400,0.373,0.337,0.192,0.165,���k��,3.4,��
2017/01/28,15:30,0.390,0.231,0.398,0.372,0.338,0.191,0.164,���k��,4.1,��
2017/01/28,15:40,0.386,0.230,0.397,0.368,0.338,0.191,0.164,�k��,2.8,��
2017/01/28,15:50,0.387,0.231,0.399,0.372,0.335,0.191,0.164,���k��,2.5,��
2017/01/28,16:00,0.388,0.230,0.400,0.371,0.336,0.192,0.164,�k�k��,1.4,��
2017/01/28,16:10,0.386,0.230,0.399,0.371,0.337,0.191,0.164,�k��,2.5,��
2017/01/28,16:20,0.388,0.231,0.400,0.371,0.334,0.192,0.164,�k��,2.2,��
2017/01/28,16:30,0.388,0.232,0.399,0.371,0.336,0.192,0.164,���k��,1.3,��
2017/01/28,16:40,0.388,0.230,0.398,0.370,0.338,0.191,0.165,��,4.5,��
2017/01/28,16:50,0.387,0.231,0.399,0.371,0.338,0.191,0.165,���k��,2.1,��
2017/01/28,17:00,0.387,0.231,0.400,0.374,0.336,0.192,0.165,���k��,4.2,��
2017/01/28,17:10,0.389,0.231,0.399,0.370,0.337,0.192,0.165,���k��,3.4,��
2017/01/28,17:20,0.388,0.232,0.399,0.371,0.337,0.192,0.165,���k��,3.7,��
2017/01/28,17:30,0.388,0.232,0.400,0.371,0.337,0.192,0.165,�k��,4.4,��
2017/01/28,17:40,0.388,0.231,0.399,0.371,0.335,0.192,0.164,�k��,4.8,��
2017/01/28,17:50,0.388,0.231,0.399,0.369,0.336,0.192,0.164,�k��,4.5,��
2017/01/28,18:00,0.387,0.231,0.400,0.369,0.336,0.191,0.164,�k��,3.9,��
2017/01/28,18:10,0.387,0.230,0.401,0.371,0.335,0.192,0.164,�k��,4.8,��
2017/01/28,18:20,0.388,0.232,0.399,0.372,0.334,0.192,0.163,�k��,6.5,��
2017/01/28,18:30,0.389,0.230,0.399,0.370,0.336,0.193,0.163,�k�k��,6.4,��
2017/01/28,18:40,0.388,0.231,0.398,0.371,0.337,0.193,0.165,�k�k��,8.0,��
2017/01/28,18:50,0.386,0.231,0.400,0.370,0.336,0.191,0.164,�k��,8.0,��
2017/01/28,19:00,0.388,0.231,0.401,0.372,0.336,0.191,0.164,�k��,9.6,��
2017/01/28,19:10,0.388,0.230,0.397,0.372,0.336,0.192,0.164,�k��,9.7,��
2017/01/28,19:20,0.387,0.231,0.399,0.372,0.337,0.192,0.164,�k��,9.7,��
2017/01/28,19:30,0.387,0.231,0.398,0.371,0.335,0.192,0.164,�k�k��,9.5,��
2017/01/28,19:40,0.389,0.232,0.398,0.370,0.336,0.191,0.164,�k��,9.0,��
2017/01/28,19:50,0.389,0.232,0.400,0.371,0.336,0.192,0.163,�k�k��,6.4,��
2017/01/28,20:00,0.387,0.231,0.401,0.371,0.336,0.192,0.164,�k��,5.0,��
2017/01/28,20:10,0.388,0.230,0.400,0.370,0.337,0.192,0.165,�k�k��,1.4,��
2017/01/28,20:20,0.388,0.231,0.400,0.371,0.335,0.192,0.165,�k�k��,2.2,��
2017/01/28,20:30,0.387,0.230,0.398,0.373,0.335,0.192,0.164,�k��,2.1,��
2017/01/28,20:40,0.387,0.230,0.400,0.372,0.335,0.192,0.163,�k��,3.9,��
2017/01/28,20:50,0.388,0.232,0.399,0.369,0.336,0.191,0.164,���k��,5.0,��
2017/01/28,21:00,0.388,0.231,0.399,0.370,0.335,0.193,0.164,���k��,4.5,��
2017/01/28,21:10,0.388,0.231,0.399,0.371,0.335,0.191,0.164,�k�k��,2.8,��
2017/01/28,21:20,0.388,0.230,0.399,0.371,0.335,0.191,0.165,�k�k��,2.5,��
2017/01/28,21:30,0.388,0.231,0.399,0.370,0.337,0.192,0.164,�k��,3.2,��
2017/01/28,21:40,0.388,0.231,0.399,0.371,0.335,0.191,0.164,�k��,3.3,��
2017/01/28,21:50,0.388,0.232,0.398,0.370,0.337,0.192,0.165,�k��,2.8,��
2017/01/28,22:00,0.387,0.231,0.399,0.371,0.336,0.191,0.164,�k��,2.1,��
2017/01/28,22:10,0.387,0.231,0.401,0.370,0.336,0.191,0.164,�k��,1.6,��
2017/01/28,22:20,0.387,0.231,0.398,0.371,0.336,0.192,0.164,�k,0.9,��
2017/01/28,22:30,0.388,0.231,0.399,0.369,0.336,0.191,0.164,�k��,2.1,��
2017/01/28,22:40,0.387,0.231,0.400,0.369,0.335,0.192,0.165,�k�k��,3.5,��
2017/01/28,22:50,0.387,0.231,0.400,0.369,0.336,0.192,0.165,�k��,4.1,��
2017/01/28,23:00,0.388,0.232,0.399,0.371,0.336,0.191,0.165,�k�k��,4.6,��
2017/01/28,23:10,0.389,0.231,0.399,0.370,0.336,0.191,0.165,�k�k��,6.2,��
2017/01/28,23:20,0.388,0.230,0.398,0.372,0.335,0.192,0.164,�k�k��,6.4,��
2017/01/28,23:30,0.388,0.232,0.401,0.371,0.335,0.192,0.165,�k,5.1,��
2017/01/28,23:40,0.387,0.231,0.398,0.370,0.336,0.191,0.164,�k,5.6,��
2017/01/28,23:50,0.387,0.231,0.399,0.371,0.336,0.191,0.165,�k,5.5,��
